• In Moldova, Republic
  • List of Countries
  • For 7 days
  • Water Temperature
  • Satellite Maps
  • Weather Map
  • Weather Widgets
  • user-avatar
    Login

    Hourly Weather Sumgayit

    Today, 28 March, Tuesday

    Time Temperature Precipitation Wind Pressure Humidity
    00:00 +7°C° 0 mm 3 mps 736 mmHg 80%
    01:00 +5°C° 0 mm 3 mps 736 mmHg 82%
    02:00 +5°C° 0 mm 3 mps 736 mmHg 84%
    03:00 +5°C° 0 mm 3 mps 736 mmHg 86%
    04:00 +5°C° 0 mm 4 mps 736 mmHg 86%
    05:00 +5°C° 0 mm 5 mps 736 mmHg 87%
    06:00 +5°C° 0 mm 5 mps 737 mmHg 87%
    07:00 +5°C° 0 mm 6 mps 738 mmHg 81%
    08:00 +6°C° 0 mm 7 mps 739 mmHg 75%
    09:00 +8°C° 0 mm 7 mps 739 mmHg 68%
    10:00 +9°C° 0 mm 7 mps 740 mmHg 66%
    11:00 +9°C° 0 mm 7 mps 740 mmHg 64%
    12:00 +10°C° 0 mm 7 mps 741 mmHg 62%
    13:00 +9°C° 0 mm 6 mps 741 mmHg 63%
    14:00 +9°C° 0 mm 6 mps 741 mmHg 64%
    15:00 +8°C° 0 mm 6 mps 741 mmHg 65%
    16:00 +8°C° 0 mm 5 mps 741 mmHg 67%
    17:00 +7°C° 0 mm 4 mps 741 mmHg 68%
    18:00 +8°C° 0 mm 3 mps 741 mmHg 70%
    19:00 +7°C° 0 mm 3 mps 741 mmHg 73%
    20:00 +6°C° 0 mm 4 mps 741 mmHg 76%
    21:00 +5°C° 0 mm 4 mps 741 mmHg 79%
    22:00 +5°C° 0 mm 5 mps 741 mmHg 79%
    23:00 +4°C° 0 mm 6 mps 740 mmHg 79%

    Tomorrow, 29 March, Wednesday

    Time Temperature Precipitation Wind Pressure Humidity
    00:00 +4°C° 0 mm 7 mps 740 mmHg 79%
    01:00 +4°C° 0 mm 7 mps 739 mmHg 78%
    02:00 +4°C° 0 mm 7 mps 739 mmHg 77%
    03:00 +4°C° 0 mm 8 mps 738 mmHg 76%
    04:00 +4°C° 0 mm 7 mps 738 mmHg 68%
    05:00 +4°C° 0 mm 7 mps 738 mmHg 60%
    06:00 +4°C° 0 mm 7 mps 738 mmHg 52%
    07:00 +6°C° 0 mm 7 mps 738 mmHg 45%
    08:00 +9°C° 0 mm 7 mps 739 mmHg 38%
    09:00 +13°C° 0 mm 6 mps 740 mmHg 31%
    10:00 +13°C° 0 mm 6 mps 740 mmHg 32%
    11:00 +14°C° 0 mm 6 mps 740 mmHg 33%
    12:00 +15°C° 0 mm 6 mps 741 mmHg 34%
    13:00 +15°C° 0 mm 6 mps 741 mmHg 37%
    14:00 +14°C° 0 mm 6 mps 741 mmHg 39%
    15:00 +14°C° 0 mm 6 mps 741 mmHg 42%
    16:00 +11°C° 0 mm 6 mps 742 mmHg 51%
    17:00 +9°C° 0 mm 6 mps 743 mmHg 60%
    18:00 +7°C° 0 mm 6 mps 743 mmHg 69%
    19:00 +7°C° 0 mm 5 mps 744 mmHg 72%
    20:00 +6°C° 0 mm 4 mps 745 mmHg 74%
    21:00 +7°C° 0 mm 3 mps 746 mmHg 77%
    22:00 +5°C° 0 mm 3 mps 746 mmHg 78%
    23:00 +6°C° 0 mm 2 mps 746 mmHg 78%

    Day after tomorrow, 30 March, Thursday

    Time Temperature Precipitation Wind Pressure Humidity
    00:00 +7°C° 0 mm 1 mps 747 mmHg 79%
    01:00 +6°C° 0 mm 1 mps 747 mmHg 79%
    02:00 +6°C° 0 mm 1 mps 747 mmHg 79%
    03:00 +6°C° 0 mm 1 mps 747 mmHg 79%
    04:00 +6°C° 0 mm 1 mps 747 mmHg 78%
    05:00 +5°C° 0 mm 2 mps 747 mmHg 77%
    06:00 +5°C° 0 mm 2 mps 747 mmHg 76%
    07:00 +7°C° 0 mm 3 mps 747 mmHg 70%
    08:00 +7°C° 0 mm 4 mps 748 mmHg 64%
    09:00 +10°C° 0 mm 4 mps 748 mmHg 58%
    10:00 +10°C° 0 mm 5 mps 747 mmHg 57%
    11:00 +11°C° 0 mm 6 mps 747 mmHg 55%
    12:00 +11°C° 0 mm 6 mps 746 mmHg 54%
    13:00 +11°C° 0 mm 6 mps 745 mmHg 54%
    14:00 +12°C° 0 mm 7 mps 744 mmHg 54%
    15:00 +12°C° 0 mm 7 mps 743 mmHg 55%
    16:00 +11°C° 0 mm 6 mps 743 mmHg 58%
    17:00 +10°C° 0 mm 6 mps 743 mmHg 62%
    18:00 +9°C° 0 mm 6 mps 742 mmHg 65%
    19:00 +9°C° 0 mm 6 mps 742 mmHg 67%
    20:00 +8°C° 0 mm 5 mps 742 mmHg 69%
    21:00 +8°C° 0 mm 5 mps 742 mmHg 71%
    22:00 +7°C° 0 mm 5 mps 741 mmHg 72%
    23:00 +7°C° 0 mm 5 mps 741 mmHg 73%

    31 March, Friday

    Time Temperature Precipitation Wind Pressure Humidity
    00:00 +7°C° 0 mm 5 mps 740 mmHg 74%
    01:00 +7°C° 0 mm 5 mps 740 mmHg 75%
    02:00 +7°C° 0 mm 4 mps 740 mmHg 76%
    03:00 +6°C° 0 mm 4 mps 739 mmHg 77%
    04:00 +6°C° 0 mm 4 mps 739 mmHg 74%
    05:00 +6°C° 0 mm 4 mps 740 mmHg 71%
    06:00 +7°C° 0 mm 3 mps 740 mmHg 67%
    07:00 +8°C° 0 mm 4 mps 740 mmHg 59%
    08:00 +12°C° 0 mm 5 mps 741 mmHg 51%
    09:00 +14°C° 0 mm 5 mps 742 mmHg 43%
    10:00 +14°C° 0 mm 6 mps 742 mmHg 42%
    11:00 +15°C° 0 mm 7 mps 742 mmHg 41%
    12:00 +16°C° 0 mm 7 mps 742 mmHg 41%
    13:00 +16°C° 0 mm 8 mps 743 mmHg 43%
    14:00 +15°C° 0 mm 9 mps 743 mmHg 46%
    15:00 +14°C° 0 mm 10 mps 743 mmHg 49%
    16:00 +12°C° 0 mm 10 mps 744 mmHg 57%
    17:00 +11°C° 0 mm 11 mps 744 mmHg 65%
    18:00 +8°C° 0 mm 11 mps 745 mmHg 72%
    19:00 +7°C° 0 mm 11 mps 746 mmHg 74%
    20:00 +6°C° 0 mm 11 mps 746 mmHg 76%
    21:00 +6°C° 0 mm 11 mps 747 mmHg 77%
    22:00 +4°C° 0 mm 11 mps 747 mmHg 76%
    23:00 +5°C° 0 mm 10 mps 747 mmHg 75%

    1 April, Saturday

    Time Temperature Precipitation Wind Pressure Humidity
    00:00 +3°C° 0 mm 10 mps 747 mmHg 75%
    01:00 +3°C° 0.1 mm 9 mps 747 mmHg 74%
    02:00 +3°C° 0.1 mm 9 mps 747 mmHg 74%
    03:00 +4°C° 0.1 mm 8 mps 747 mmHg 74%
    04:00 +2°C° 0.3 mm 8 mps 747 mmHg 73%
    05:00 +3°C° 0.3 mm 7 mps 747 mmHg 73%
    06:00 +3°C° 0.3 mm 7 mps 747 mmHg 73%
    07:00 +3°C° 0 mm 7 mps 747 mmHg 70%
    08:00 +3°C° 0 mm 6 mps 747 mmHg 68%
    09:00 +3°C° 0 mm 6 mps 747 mmHg 66%
    10:00 +4°C° 0.3 mm 6 mps 746 mmHg 65%
    11:00 +4°C° 0.3 mm 6 mps 746 mmHg 64%
    12:00 +5°C° 0.3 mm 5 mps 746 mmHg 63%
    13:00 +5°C° 0.3 mm 5 mps 745 mmHg 65%
    14:00 +5°C° 0.3 mm 5 mps 745 mmHg 67%
    15:00 +5°C° 0.3 mm 5 mps 745 mmHg 69%
    16:00 +3°C° 0.1 mm 5 mps 745 mmHg 71%
    17:00 +3°C° 0.1 mm 5 mps 745 mmHg 74%
    18:00 +2°C° 0.1 mm 6 mps 745 mmHg 76%
    19:00 +2°C° 0 mm 5 mps 745 mmHg 77%
    20:00 +2°C° 0 mm 5 mps 746 mmHg 77%
    21:00 +3°C° 0 mm 4 mps 746 mmHg 78%
    22:00 +3°C° 0 mm 4 mps 746 mmHg 78%
    23:00 +3°C° 0 mm 4 mps 746 mmHg 79%

    2 April, Sunday

    Time Temperature Precipitation Wind Pressure Humidity
    00:00 +1°C° 0 mm 4 mps 745 mmHg 80%
    01:00 +1°C° 0 mm 5 mps 746 mmHg 79%
    02:00 +1°C° 0 mm 5 mps 746 mmHg 79%
    03:00 +1°C° 0 mm 5 mps 746 mmHg 79%
    04:00 +2°C° 0 mm 6 mps 746 mmHg 78%
    05:00 +2°C° 0 mm 7 mps 746 mmHg 77%
    06:00 +1°C° 0 mm 8 mps 747 mmHg 77%
    07:00 +1°C° 0 mm 8 mps 747 mmHg 74%
    08:00 +2°C° 0 mm 9 mps 748 mmHg 72%
    09:00 +2°C° 0 mm 9 mps 748 mmHg 69%
    10:00 +3°C° 0 mm 9 mps 748 mmHg 66%
    11:00 +5°C° 0 mm 9 mps 749 mmHg 63%
    12:00 +5°C° 0 mm 8 mps 749 mmHg 60%
    13:00 +5°C° 0 mm 8 mps 749 mmHg 59%
    14:00 +5°C° 0 mm 7 mps 749 mmHg 57%
    15:00 +5°C° 0 mm 7 mps 749 mmHg 56%
    16:00 +5°C° 0 mm 6 mps 749 mmHg 58%
    17:00 +4°C° 0 mm 6 mps 749 mmHg 59%
    18:00 +5°C° 0 mm 5 mps 749 mmHg 61%
    19:00 +3°C° 0 mm 5 mps 750 mmHg 63%
    20:00 +4°C° 0 mm 4 mps 750 mmHg 65%
    21:00 +3°C° 0 mm 4 mps 750 mmHg 68%
    22:00 +3°C° 0 mm 3 mps 750 mmHg 69%
    23:00 +3°C° 0 mm 3 mps 750 mmHg 71%
    Show more